[[{"header":{"parameterUnit":"m.s-1","parameterCategory":1,"la1":30.2991,"la2":30.254,"lo1":-89.0895,"lo2":-89.0444,"dy":0.0017,"dx":0.0017,"nx":28,"ny":28,"refTime":"2024-06-05T09:00:00:Z","depth":0,"parameterNumber":2,"parameterNumberName":"U-component_of_WINDS"},"data":[0,0,0,0,0,0,0,0,0,0,0,0,0,0,0,0,0,0,0,0,0,0,0,0,0,0,0,0,0,0,0,0,0,0,0,0,0,0,0,0,0,0,0,0,0,0,0,0,0,0,0,0,0,0,0,0,0,0,0.4442,0.4442,0,0.4471,0.4472,0.4472,0.4468,0.4467,0.4467,0.4466,0.4495,0.4497,0.4498,0,0,0,0,0,0,0,0,0,0,0,0,0,0.4378,0.438,0.4442,0.4442,0.4442,0.4471,0.4472,0.4472,0.4468,0.4467,0.4467,0.4466,0.4495,0.4496,0.4498,0,0,0,0,0,0,0,0,0,0,0,0,0,0.4407,0.438,0.4442,0.4444,0.4444,0.4471,0.4472,0.4472,0.4468,0.4467,0.4466,0.4466,0.4494,0.4496,0.4498,0.4525,0,0,0.4504,0.4505,0,0,0,0,0,0,0,0,0.4405,0.4409,0.4443,0.4444,0.4444,0.4465,0.446,0.449,0.4468,0.4459,0.4466,0.4465,0.4486,0.4488,0.4496,0.4526,0.4527,0.4504,0.4505,0.4506,0.4506,0,0,0,0,0,0,0,0.4403,0.4408,0.4453,0.4444,0.4444,0.4442,0.4445,0.4466,0.4476,0.446,0.4459,0.4463,0.4486,0.4494,0.4496,0.4528,0.4504,0.4506,0.4507,0.4507,0.4578,0.4579,0,0,0,0,0,0,0.4401,0.4406,0.4452,0.4454,0.4422,0.4444,0.4448,0.4459,0.4476,0.4478,0.4464,0.4463,0.4491,0.4494,0.4497,0.4527,0.4506,0.4508,0.4509,0.4578,0.4579,0.4579,0,0,0,0,0,0,0.44,0.4405,0.4451,0.443,0.4436,0.4446,0.4459,0.446,0.4468,0.4479,0.4481,0.447,0.449,0.4495,0.4517,0.4528,0.4508,0.451,0.4577,0.4578,0.4579,0.4589,0,0,0,0,0,0,0.4398,0.4405,0.4416,0.443,0.4437,0.4472,0.446,0.4461,0.4471,0.447,0.4485,0.4487,0.449,0.4514,0.4519,0.453,0.4512,0.4576,0.4577,0.4579,0.4588,0.459,0.4592,0,0,0,0,0,0.4396,0.4417,0.4416,0.4422,0.4451,0.4472,0.4476,0.448,0.4472,0.4482,0.4489,0.4486,0.4527,0.4517,0.4522,0.4534,0.4575,0.4577,0.4578,0.4586,0.459,0.4592,0,0,0,0,0,0,0.4403,0.4419,0.4418,0.4446,0.4458,0.4472,0.4485,0.4483,0.4497,0.4496,0.45,0.4503,0.4525,0.4532,0.4521,0.4559,0.455,0.4552,0.4554,0.4557,0.4559,0.4557,0.4513,0,0,0,0,0,0.4408,0.4425,0.4438,0.4461,0.4467,0.4475,0.4484,0.4486,0.4498,0.4503,0.4512,0.4524,0.4538,0.4548,0.4563,0.4589,0.4591,0.4599,0.4602,0.4604,0.4606,0.4618,0.4621,0.4585,0.4585,0.4585,0,0,0.4419,0.443,0.444,0.4463,0.4472,0.4488,0.4479,0.4497,0.4509,0.4506,0.4527,0.4534,0.4547,0.4571,0.4582,0.4577,0.4616,0.4606,0.4608,0.4608,0.462,0.4623,0.4626,0.4586,0.4586,0.4586,0,0,0.4446,0.4456,0.4475,0.4485,0.4499,0.4504,0.4509,0.4522,0.4527,0.4548,0.4546,0.456,0.4586,0.4595,0.4603,0.4631,0.4628,0.4635,0.4648,0.4659,0.4662,0.4665,0.4673,0.4676,0.4638,0.4638,0.4638,0,0.4456,0.4481,0.4485,0.4503,0.4512,0.4511,0.4529,0.4538,0.4556,0.4562,0.4557,0.4588,0.4597,0.4622,0.4629,0.4636,0.464,0.4633,0.4662,0.4664,0.4666,0.4674,0.4678,0.4638,0.4638,0.4638,0.4638,0,0.4493,0.451,0.4523,0.4541,0.4552,0.457,0.4575,0.4586,0.4586,0.4591,0.4612,0.4622,0.4638,0.4644,0.4645,0.4669,0.4665,0.4661,0.4651,0.467,0.4678,0.4681,0.4639,0.4639,0.4639,0.4639,0,0,0.4525,0.4544,0.4549,0.4555,0.457,0.4583,0.46,0.4616,0.4624,0.4636,0.4649,0.4671,0.4666,0.4675,0.4677,0.4688,0.4707,0.4682,0.4682,0.4684,0.4731,0.4733,0.4736,0.4705,0.4706,0.4706,0.4729,0,0.4552,0.4583,0.4586,0.4613,0.4627,0.4626,0.464,0.465,0.4655,0.4667,0.4673,0.4687,0.4681,0.4686,0.4697,0.4702,0.4716,0.4701,0.4716,0.4717,0.4712,0.474,0.4743,0.4764,0.4732,0.4733,0.4733,0,0.4587,0.46,0.4628,0.4639,0.4646,0.4659,0.4672,0.4684,0.4695,0.4698,0.4707,0.4707,0.4723,0.4714,0.4735,0.4725,0.4731,0.4735,0.4736,0.4736,0.4725,0.474,0.4771,0.4773,0.4738,0.4737,0.4737,0,0.4605,0.463,0.4649,0.4656,0.467,0.4679,0.4685,0.4695,0.4703,0.4715,0.472,0.4734,0.474,0.475,0.4753,0.4746,0.4774,0.4765,0.4776,0.4775,0.4781,0.478,0.4811,0.4787,0.4787,0.4787,0.4787,0,0.4634,0.465,0.4657,0.4669,0.4687,0.4691,0.4709,0.4714,0.4723,0.4735,0.4735,0.4746,0.475,0.4761,0.4764,0.478,0.4784,0.4785,0.4786,0.4785,0.4784,0.4788,0.4786,0.4788,0.4788,0.4788,0.4788,0,0.4657,0.4662,0.4683,0.4695,0.4698,0.471,0.472,0.473,0.4735,0.475,0.4754,0.476,0.4774,0.4778,0.4794,0.4796,0.4815,0.4814,0.4811,0.481,0.482,0.4818,0.4854,0.4858,0.4832,0.4833,0.4833,0,0.4674,0.4686,0.4699,0.4707,0.4713,0.4727,0.4735,0.4739,0.4747,0.476,0.4768,0.4782,0.4792,0.4813,0.4819,0.4831,0.483,0.4842,0.4832,0.483,0.4829,0.4827,0.4828,0.4843,0.4844,0.4844,0.4844,0,0.4702,0.4704,0.4717,0.4729,0.4739,0.475,0.4759,0.4766,0.4771,0.478,0.4794,0.4802,0.4818,0.4831,0.4843,0.4848,0.4846,0.4847,0.485,0.4848,0.4845,0.4845,0.4814,0.4846,0.4846,0.4846,0.4846,0.4846,0.4722,0.4732,0.4742,0.4755,0.4763,0.4772,0.4782,0.4788,0.4799,0.4813,0.4814,0.4828,0.4837,0.4853,0.4859,0.4869,0.4866,0.4871,0.4871,0.4872,0.4872,0.4844,0.4872,0.4872,0.4872,0.4872,0.4872,0,0.4749,0.4755,0.4767,0.4781,0.4791,0.4789,0.4799,0.4807,0.482,0.4829,0.4839,0.4854,0.4866,0.4872,0.4884,0.4891,0.489,0.4894,0.4892,0.4893,0.4875,0.4871,0.4894,0.4894,0.4894,0.4894,0.4894,0.4894,0.4764,0.4781,0.4784,0.4804,0.481,0.4824,0.483,0.4838,0.4844,0.4861,0.4871,0.4875,0.4882,0.4894,0.4905,0.4906,0.491,0.4913,0.4914,0.4897,0.4895,0.4893,0.4888,0.4915,0.4915,0.4931,0.4932,0.4932]},{"header":{"parameterUnit":"m.s-1","parameterCategory":1,"la1":30.2991,"la2":30.254,"lo1":-89.0895,"lo2":-89.0444,"dy":0.0017,"dx":0.0017,"nx":28,"ny":28,"refTime":"2024-06-05T09:00:00:Z","depth":0,"parameterNumber":3,"parameterNumberName":"V-component_of_WINDS"},"data":[0,0,0,0,0,0,0,0,0,0,0,0,0,0,0,0,0,0,0,0,0,0,0,0,0,0,0,0,0,0,0,0,0,0,0,0,0,0,0,0,0,0,0,0,0,0,0,0,0,0,0,0,0,0,0,0,0,0,5.3166,5.3168,0,5.3349,5.3351,5.3353,5.3278,5.3273,5.3269,5.3265,5.3449,5.3457,5.3466,0,0,0,0,0,0,0,0,0,0,0,0,0,5.2746,5.2754,5.3166,5.3169,5.3171,5.3349,5.3351,5.3354,5.3279,5.3273,5.3268,5.3263,5.3446,5.3456,5.3467,0,0,0,0,0,0,0,0,0,0,0,0,0,5.2929,5.2757,5.3166,5.3155,5.3156,5.3348,5.3352,5.3355,5.328,5.3273,5.3267,5.326,5.3442,5.3455,5.3469,5.3682,0,0,5.351,5.3515,0,0,0,0,0,0,0,0,5.2918,5.2944,5.3154,5.3156,5.3157,5.3284,5.3271,5.3464,5.3281,5.3233,5.3265,5.3257,5.3399,5.3416,5.3464,5.3691,5.3699,5.3511,5.3519,5.3525,5.3529,0,0,0,0,0,0,0,5.2906,5.2936,5.3238,5.3157,5.3159,5.3139,5.3158,5.3307,5.335,5.3236,5.3231,5.3254,5.3399,5.3451,5.3468,5.3701,5.351,5.3522,5.3531,5.3536,5.4109,5.4115,0,0,0,0,0,0,5.2894,5.2926,5.3233,5.3244,5.3019,5.3152,5.3173,5.325,5.3348,5.3357,5.3259,5.325,5.3432,5.3452,5.3474,5.3728,5.3525,5.3537,5.3545,5.4101,5.411,5.4118,0,0,0,0,0,0,5.2885,5.2922,5.3225,5.3084,5.3121,5.3166,5.3253,5.3257,5.331,5.3366,5.3373,5.3306,5.3427,5.3455,5.363,5.3734,5.3543,5.3556,5.4093,5.4104,5.4114,5.424,0,0,0,0,0,0,5.2873,5.2919,5.3002,5.3086,5.3129,5.3381,5.326,5.3265,5.3333,5.3323,5.3411,5.342,5.3424,5.3611,5.3644,5.3749,5.3566,5.4084,5.4098,5.4111,5.4227,5.4254,5.4277,0,0,0,0,0,5.2858,5.303,5.3007,5.3044,5.3234,5.3387,5.3411,5.3414,5.3342,5.3425,5.346,5.3417,5.3717,5.3629,5.3666,5.3776,5.4077,5.4094,5.411,5.4215,5.4248,5.4276,0,0,0,0,0,0,5.2957,5.3041,5.3016,5.3221,5.3297,5.3374,5.3478,5.3449,5.3547,5.3533,5.3531,5.3552,5.3732,5.3772,5.3673,5.3986,5.3886,5.391,5.3954,5.3986,5.401,5.3996,5.3577,0,0,0,0,0,5.3002,5.3121,5.3188,5.3362,5.3401,5.3434,5.35,5.3496,5.3575,5.3607,5.3655,5.3732,5.3843,5.3917,5.4023,5.4232,5.4249,5.4326,5.4351,5.4371,5.4391,5.4502,5.4537,5.4171,5.4171,5.417,0,0,5.3097,5.3158,5.3233,5.3383,5.3442,5.3563,5.3461,5.3594,5.3683,5.3626,5.3795,5.3833,5.3918,5.4111,5.4198,5.4149,5.4496,5.4391,5.4407,5.4417,5.4522,5.4557,5.4588,5.4182,5.418,5.4178,0,0,5.3332,5.3391,5.3541,5.3602,5.3693,5.3712,5.3748,5.383,5.3853,5.4022,5.3981,5.4086,5.4279,5.434,5.4397,5.4653,5.4615,5.4687,5.4817,5.4925,5.4954,5.498,5.5069,5.5101,5.4708,5.4708,5.4708,0,5.3439,5.3621,5.3622,5.3758,5.3824,5.3778,5.3928,5.3987,5.4107,5.4153,5.4097,5.4336,5.439,5.4595,5.4658,5.4706,5.4745,5.4677,5.495,5.4976,5.5,5.5085,5.5118,5.4716,5.4715,5.4714,5.4714,0,5.3746,5.3873,5.3983,5.41,5.4178,5.4321,5.4342,5.442,5.4409,5.4434,5.4605,5.4668,5.4785,5.4833,5.4824,5.5037,5.5003,5.4949,5.4848,5.5043,5.5122,5.5155,5.4728,5.4725,5.4722,5.472,0,0,5.4049,5.4164,5.4204,5.4255,5.4351,5.4448,5.4587,5.4702,5.4768,5.4852,5.4967,5.513,5.508,5.5144,5.5141,5.5236,5.5431,5.517,5.5171,5.5214,5.5667,5.5707,5.5745,5.5407,5.5414,5.5419,5.566,0,5.4289,5.4535,5.4539,5.4763,5.4879,5.4836,5.4957,5.5027,5.5054,5.5154,5.5183,5.5298,5.5224,5.5262,5.5355,5.5388,5.5522,5.5371,5.5512,5.5517,5.5491,5.5787,5.5829,5.6054,5.5691,5.5696,5.57,0,5.4603,5.4697,5.4934,5.501,5.5058,5.5167,5.5271,5.5369,5.5447,5.5459,5.553,5.5512,5.5651,5.5546,5.5737,5.5634,5.5692,5.5717,5.5725,5.5738,5.562,5.5805,5.6126,5.6159,5.575,5.5746,5.5742,0,5.4798,5.4983,5.5148,5.5194,5.5288,5.5364,5.5407,5.5478,5.5546,5.5637,5.568,5.5786,5.5843,5.5924,5.5934,5.5857,5.6125,5.6021,5.6137,5.6137,5.6195,5.6191,5.6528,5.6235,5.6234,5.6233,5.6233,0,5.5065,5.5211,5.5236,5.5338,5.5499,5.55,5.5659,5.5695,5.5759,5.5864,5.5833,5.5933,5.594,5.6042,5.605,5.6205,5.6231,5.6244,5.6244,5.6246,5.6245,5.6283,5.6268,5.6242,5.624,5.6239,5.6237,0,5.531,5.5333,5.5509,5.5583,5.5605,5.572,5.5782,5.5878,5.5901,5.6035,5.6066,5.6102,5.622,5.6238,5.6376,5.6381,5.6567,5.6551,5.6541,5.6538,5.6653,5.6641,5.7025,5.7075,5.6751,5.6754,5.6756,0,5.5478,5.5589,5.5675,5.5744,5.5791,5.5902,5.5971,5.5976,5.6049,5.6145,5.6228,5.6343,5.6435,5.6625,5.6663,5.6767,5.6753,5.688,5.6769,5.6767,5.6753,5.6746,5.6756,5.6902,5.6905,5.6908,5.6911,0,5.5775,5.578,5.5881,5.5987,5.607,5.6153,5.6231,5.6288,5.6303,5.6386,5.6507,5.6578,5.6719,5.6832,5.6936,5.6977,5.6946,5.6945,5.6977,5.698,5.6969,5.6975,5.6598,5.6937,5.6934,5.6932,5.6931,5.693,5.5985,5.6081,5.6156,5.6269,5.6328,5.6401,5.6494,5.6528,5.6629,5.6745,5.6741,5.6873,5.6945,5.7081,5.7129,5.7231,5.7189,5.7236,5.7248,5.7259,5.727,5.6954,5.725,5.7249,5.7249,5.7248,5.7248,0,5.6278,5.6324,5.6428,5.6538,5.6626,5.659,5.6674,5.675,5.6867,5.6937,5.7028,5.7165,5.7275,5.732,5.7427,5.75,5.7488,5.7528,5.7522,5.7531,5.7302,5.7263,5.7535,5.7535,5.7535,5.7535,5.7535,5.7535,5.6441,5.6601,5.6615,5.6802,5.6846,5.6976,5.7026,5.7093,5.7149,5.7304,5.7395,5.7424,5.7484,5.7594,5.7692,5.7703,5.7743,5.7789,5.7793,5.7577,5.7548,5.752,5.7483,5.7798,5.7798,5.8013,5.8015,5.8017]}]]